TimeEST,TemperatureF,Dew PointF,Humidity,Sea Level PressureIn,VisibilityMPH,Wind Direction,Wind SpeedMPH,Gust SpeedMPH,PrecipitationIn,Events,Conditions,WindDirDegrees,DateUTC
12:58 AM,19.2,19.0,99,30.01,7.0,Calm,Calm,-,N/A,,Scattered Clouds,0,2013-12-18 05:58:00
1:38 AM,19.4,17.6,93,29.99,7.0,Variable,1.2,-,N/A,Snow,Light Snow,0,2013-12-18 06:38:00
1:47 AM,17.6,17.6,100,29.98,6.0,Variable,4.6,-,N/A,,Mostly Cloudy,0,2013-12-18 06:47:00
1:58 AM,18.1,18.0,99,30.02,6.0,SSE,4.6,-,0.00,,Mostly Cloudy,160,2013-12-18 06:58:00
2:51 AM,21.2,21.2,100,30.00,8.0,Variable,3.5,-,N/A,Snow,Light Snow,0,2013-12-18 07:51:00
2:57 AM,19.4,19.4,100,30.00,7.0,Variable,2.3,-,N/A,,Partly Cloudy,0,2013-12-18 07:57:00
2:58 AM,19.4,19.4,100,30.03,7.0,Variable,2.3,-,0.00,,Partly Cloudy,0,2013-12-18 07:58:00
3:06 AM,21.2,21.2,100,30.00,8.0,West,9.2,-,N/A,Rain,Light Freezing Rain,280,2013-12-18 08:06:00
3:08 AM,23.0,23.0,100,30.00,8.0,WNW,6.9,-,N/A,Snow,Light Snow,290,2013-12-18 08:08:00
3:24 AM,28.4,28.4,100,30.00,10.0,WNW,10.4,-,N/A,,Scattered Clouds,290,2013-12-18 08:24:00
3:58 AM,29.3,25.2,85,30.04,10.0,WNW,8.1,-,0.00,,Scattered Clouds,290,2013-12-18 08:58:00
4:58 AM,29.7,23.4,77,30.06,10.0,WNW,9.2,18.4,N/A,,Overcast,290,2013-12-18 09:58:00
5:58 AM,28.6,22.6,78,30.07,10.0,WSW,5.8,-,N/A,,Clear,240,2013-12-18 10:58:00
6:58 AM,25.7,22.8,89,30.09,10.0,WSW,8.1,-,N/A,,Clear,240,2013-12-18 11:58:00
7:58 AM,25.0,22.8,91,30.11,10.0,SW,4.6,-,N/A,,Clear,220,2013-12-18 12:58:00
8:58 AM,27.9,19.8,72,30.12,10.0,Variable,5.8,-,N/A,,Mostly Cloudy,0,2013-12-18 13:58:00
9:58 AM,32.2,19.0,58,30.13,10.0,West,9.2,19.6,N/A,,Clear,280,2013-12-18 14:58:00
10:58 AM,33.1,21.0,61,30.13,10.0,West,15.0,23.0,N/A,,Partly Cloudy,270,2013-12-18 15:58:00
11:58 AM,33.4,20.7,59,30.13,10.0,West,13.8,20.7,N/A,,Scattered Clouds,260,2013-12-18 16:58:00
12:58 PM,33.8,19.0,55,30.12,10.0,West,13.8,23.0,N/A,,Mostly Cloudy,260,2013-12-18 17:58:00
1:58 PM,34.9,17.8,50,30.12,10.0,WNW,15.0,19.6,N/A,,Partly Cloudy,300,2013-12-18 18:58:00
2:58 PM,35.8,17.8,48,30.13,10.0,West,13.8,21.9,N/A,,Scattered Clouds,260,2013-12-18 19:58:00
3:58 PM,34.7,17.4,49,30.15,10.0,West,9.2,-,N/A,,Partly Cloudy,280,2013-12-18 20:58:00
4:58 PM,33.1,17.2,52,30.16,10.0,West,11.5,-,N/A,,Scattered Clouds,260,2013-12-18 21:58:00
5:58 PM,32.4,17.8,55,30.19,10.0,West,4.6,-,N/A,,Overcast,260,2013-12-18 22:58:00
6:58 PM,32.0,19.9,61,30.20,10.0,WSW,11.5,-,N/A,,Overcast,250,2013-12-18 23:58:00
7:58 PM,31.5,20.7,64,30.21,10.0,Variable,6.9,-,N/A,,Mostly Cloudy,0,2013-12-19 00:58:00
8:58 PM,30.2,20.7,68,30.20,10.0,Variable,1.2,-,N/A,,Mostly Cloudy,0,2013-12-19 01:58:00
9:58 PM,30.6,19.8,64,30.21,10.0,West,3.5,-,N/A,,Mostly Cloudy,260,2013-12-19 02:58:00
10:58 PM,24.4,19.9,83,30.21,10.0,West,2.3,-,N/A,,Clear,280,2013-12-19 03:58:00
11:58 PM,21.7,20.7,96,30.20,10.0,SE,2.3,-,N/A,,Clear,130,2013-12-19 04:58:00